[[{"header":{"parameterUnit":"m.s-1","parameterCategory":1,"la1":30.2992,"la2":30.254,"lo1":-89.0895,"lo2":-89.0443,"dy":0.0025,"dx":0.0025,"nx":19,"ny":19,"refTime":"2026-05-02T03:00:00:Z","depth":0,"parameterNumber":2,"parameterNumberName":"U-component_of_WINDS"},"data":[0,0,0,0.5825,0.5826,0.5875,0.5875,0.5932,0.5932,0,0,0,0,0,0,0,0,0,0,0,0.5805,0.5806,0.5825,0.5826,0.5875,0.5875,0.5931,0.5932,0,0,0,0,0,0,0,0,0,0,0,0.5805,0.5806,0.5806,0.5826,0.5875,0.5875,0.5931,0.5897,0,0,0,0,0,0,0,0,0,0,0.585,0.5827,0.5806,0.5806,0.5826,0.5875,0.5875,0.5895,0.5899,0.5906,0,0.5911,0,0.5922,0.5935,0.5935,0,0,0,0.583,0.5824,0.5842,0.5806,0.5827,0.5875,0.5854,0.5897,0.5902,0.5911,0.5912,0.5914,0.5923,0.5936,0.5936,0.5965,0.5965,0,0,0.5827,0.5812,0.5839,0.5844,0.5836,0.5852,0.5855,0.59,0.59,0.5912,0.5915,0.5924,0.5936,0.5936,0.5965,0.5965,0,0,0,0.5817,0.581,0.5826,0.5842,0.5851,0.5854,0.5857,0.5898,0.5905,0.5916,0.5925,0.5936,0.5937,0.5965,0.5965,0.5948,0,0,0,0.5815,0.5804,0.5825,0.5816,0.585,0.5875,0.5854,0.5901,0.5907,0.5924,0.5936,0.5937,0.5965,0.5965,0.5949,0.5942,0,0,0,0.5804,0.5802,0.5808,0.5815,0.5836,0.5874,0.5884,0.5903,0.5912,0.5935,0.5937,0.5965,0.5965,0.5949,0.5943,0.5946,0,0,0,0.5787,0.5792,0.5807,0.5816,0.5835,0.5864,0.5884,0.5906,0.5924,0.5936,0.5965,0.5965,0.5949,0.5944,0.5946,0.5945,0.5943,0,0,0.5784,0.5791,0.5797,0.5812,0.5834,0.5857,0.5877,0.5908,0.5924,0.5951,0.5952,0.5948,0.5943,0.5946,0.5938,0.5936,0,0,0,0.5791,0.5795,0.5804,0.5821,0.5845,0.5865,0.5895,0.5907,0.593,0.5935,0.5951,0.5948,0.595,0.595,0.5949,0.5952,0.5964,0.5964,0.5964,0.5763,0.5785,0.5797,0.5824,0.584,0.5872,0.5887,0.5909,0.5925,0.5929,0.5936,0.5929,0.5928,0.5927,0.593,0.5938,0.5937,0.5937,0.5937,0.5761,0.577,0.5793,0.5813,0.5836,0.5853,0.5885,0.5896,0.5916,0.5924,0.5927,0.5934,0.5925,0.5929,0.5936,0.5937,0.5937,0.5937,0.5937,0.5745,0.5753,0.5768,0.5795,0.5814,0.5843,0.5861,0.5881,0.5901,0.5904,0.5915,0.5915,0.5918,0.5908,0.5908,0.5908,0.5908,0.5908,0.5908,0.5722,0.5739,0.5752,0.5779,0.5794,0.5815,0.5848,0.5863,0.5885,0.5898,0.5899,0.5915,0.592,0.5921,0.5907,0.5907,0.5907,0.5907,0.5907,0.571,0.5716,0.5736,0.575,0.5785,0.5803,0.583,0.5859,0.5874,0.5883,0.59,0.59,0.5908,0.5909,0.591,0.5894,0.5894,0.5894,0.5894,0.5696,0.5703,0.5728,0.575,0.5774,0.58,0.5823,0.585,0.5879,0.589,0.5896,0.5899,0.5899,0.5907,0.5908,0.5909,0.5894,0.5894,0.5894,0.569,0.57,0.5715,0.5743,0.5773,0.5798,0.582,0.5845,0.5879,0.5894,0.59,0.59,0.5905,0.5905,0.5918,0.592,0.5922,0,0]},{"header":{"parameterUnit":"m.s-1","parameterCategory":1,"la1":30.2992,"la2":30.254,"lo1":-89.0895,"lo2":-89.0443,"dy":0.0025,"dx":0.0025,"nx":19,"ny":19,"refTime":"2026-05-02T03:00:00:Z","depth":0,"parameterNumber":3,"parameterNumberName":"V-component_of_WINDS"},"data":[0,0,0,-7.3983,-7.3986,-7.4093,-7.4093,-7.4237,-7.4239,0,0,0,0,0,0,0,0,0,0,0,-7.3958,-7.3959,-7.3983,-7.3986,-7.4093,-7.4093,-7.4237,-7.4239,0,0,0,0,0,0,0,0,0,0,0,-7.3957,-7.3958,-7.396,-7.3986,-7.4093,-7.4093,-7.4237,-7.4153,0,0,0,0,0,0,0,0,0,0,-7.4047,-7.403,-7.3958,-7.396,-7.3987,-7.4093,-7.4093,-7.4149,-7.4158,-7.4192,0,-7.4226,0,-7.4235,-7.4249,-7.4249,0,0,0,-7.398,-7.4022,-7.4046,-7.396,-7.3988,-7.4093,-7.4043,-7.4154,-7.4164,-7.4205,-7.4228,-7.4233,-7.4238,-7.425,-7.4251,-7.4473,-7.4474,0,0,-7.3975,-7.3979,-7.4039,-7.4053,-7.404,-7.404,-7.4047,-7.416,-7.4185,-7.4229,-7.4237,-7.424,-7.4251,-7.4252,-7.4472,-7.4473,0,0,0,-7.3961,-7.3975,-7.3996,-7.4048,-7.4067,-7.4043,-7.4051,-7.418,-7.4186,-7.4238,-7.4242,-7.4252,-7.4254,-7.447,-7.4472,-7.4542,0,0,0,-7.3957,-7.3968,-7.3994,-7.3998,-7.4065,-7.4125,-7.4068,-7.4179,-7.4191,-7.4241,-7.4252,-7.4255,-7.4469,-7.4471,-7.4537,-7.4574,0,0,0,-7.3948,-7.3966,-7.3985,-7.3998,-7.4045,-7.4123,-7.4136,-7.4181,-7.4194,-7.425,-7.4256,-7.4468,-7.4471,-7.4533,-7.4567,-7.4635,0,0,0,-7.3939,-7.4043,-7.3986,-7.4103,-7.4044,-7.4167,-7.4135,-7.4226,-7.4282,-7.4253,-7.4469,-7.4472,-7.4532,-7.4562,-7.4631,-7.4694,-7.4721,0,0,-7.4073,-7.4059,-7.4128,-7.408,-7.4215,-7.415,-7.4294,-7.4339,-7.4338,-7.4427,-7.4433,-7.4539,-7.4566,-7.4634,-7.487,-7.4892,0,0,0,-7.4172,-7.4221,-7.4256,-7.4311,-7.4351,-7.4387,-7.441,-7.4428,-7.4504,-7.4386,-7.4582,-7.4598,-7.4638,-7.4668,-7.4686,-7.472,-7.4486,-7.4486,-7.4485,-7.4366,-7.4363,-7.4476,-7.4487,-7.4541,-7.4566,-7.4609,-7.4636,-7.4613,-7.466,-7.4686,-7.483,-7.4866,-7.4879,-7.4915,-7.4719,-7.472,-7.472,-7.472,-7.4561,-7.4631,-7.4603,-7.4704,-7.4699,-7.4782,-7.481,-7.4793,-7.4869,-7.4809,-7.4844,-7.478,-7.4903,-7.4934,-7.4725,-7.4724,-7.4724,-7.4723,-7.4723,-7.4688,-7.4721,-7.4743,-7.4825,-7.4888,-7.4893,-7.4969,-7.4961,-7.4954,-7.4988,-7.5016,-7.5015,-7.5013,-7.5002,-7.5003,-7.5003,-7.5004,-7.5004,-7.5004,-7.4811,-7.4833,-7.49,-7.4953,-7.4989,-7.5035,-7.5062,-7.5097,-7.5132,-7.512,-7.5121,-7.5095,-7.4916,-7.4872,-7.5012,-7.5011,-7.501,-7.5009,-7.5009,-7.501,-7.4965,-7.5067,-7.5104,-7.5166,-7.523,-7.5221,-7.5292,-7.5319,-7.5357,-7.5324,-7.5194,-7.5178,-7.5164,-7.5127,-7.5324,-7.5324,-7.5324,-7.5324,-7.5118,-7.511,-7.5215,-7.5274,-7.5331,-7.5333,-7.5448,-7.5471,-7.5487,-7.5504,-7.5474,-7.5424,-7.541,-7.5403,-7.5383,-7.5349,-7.5598,-7.5599,-7.5599,-7.524,-7.5239,-7.5339,-7.5357,-7.5406,-7.5448,-7.5556,-7.5624,-7.5632,-7.561,-7.5516,-7.5505,-7.5425,-7.5399,-7.5374,-7.5343,-7.528,0,0]}]]